Theta_e
354 357 363 363 362 361 360 359 359 358 358 358 357 357 357 356 354 352 350 349 348 346 346 345 344 344 344 344 343 343 343 344 345 346 349 351 354 355 357 359 359 356 360
355 358 364 363 362 361 360 359 358 358 357 359 358 356 354 351 349 348 347 346 345 344 343 343 342 341 341 341 340 340 340 340 341 343 347 349 352 357 356 357 357 356 358
357 359 358 363 362 360 360 358 357 357 357 355 355 353 350 348 346 345 344 343 342 341 340 339 339 338 338 338 338 337 337 338 340 341 344 340 340 359 354 356 355 354 355
358 357 357 361 360 359 357 356 355 354 353 351 351 349 347 345 343 340 339 338 338 337 336 337 335 335 335 335 335 336 336 337 339 340 334 333 339 356 354 353 355 355 354
356 358 357 360 359 358 356 354 354 353 351 350 348 347 344 341 339 337 337 337 336 336 336 335 334 332 332 332 333 335 338 340 342 339 328 328 340 348 350 350 352 357 357
353 355 357 359 358 357 355 354 352 350 349 348 346 343 341 338 337 337 337 336 335 334 334 333 332 332 332 332 334 337 340 341 342 332 331 332 331 348 346 346 348 354 358
352 355 353 358 358 356 353 350 350 349 347 345 343 341 339 338 337 337 336 336 336 335 334 333 333 333 333 335 337 338 340 340 334 327 326 331 336 346 342 339 343 351 356
353 354 352 357 357 353 353 351 349 346 345 344 341 339 338 337 337 337 337 336 335 334 333 333 333 334 336 337 338 339 340 340 333 327 327 331 341 342 336 334 339 345 354
351 353 351 350 352 356 354 351 347 345 344 343 342 340 338 337 337 338 338 338 336 336 336 336 337 338 339 340 341 343 342 341 333 328 331 338 348 343 337 335 337 343 349
349 349 347 347 350 352 350 350 347 345 343 343 341 340 339 339 341 341 342 341 338 337 339 341 342 344 344 344 345 346 343 342 332 328 334 342 350 347 346 343 339 341 346
344 348 346 347 351 350 347 346 346 345 343 342 340 341 342 336 336 336 341 344 341 341 342 344 346 347 348 348 348 347 343 336 332 328 333 347 346 343 343 345 348 341 345
343 344 348 352 351 349 346 345 342 339 339 339 338 338 337 339 342 337 342 347 345 345 345 346 347 348 346 338 336 348 338 335 333 329 332 344 342 338 338 341 345 346 345
345 347 349 352 351 347 345 343 340 340 339 339 345 345 348 346 346 341 337 336 337 341 337 341 341 339 338 335 333 333 333 331 328 328 336 343 342 337 336 337 336 343 346
344 349 348 348 346 351 343 344 341 340 342 336 341 347 345 346 344 340 340 343 342 342 339 337 337 337 337 335 332 331 331 330 328 328 334 342 341 338 335 336 338 340 343
347 350 347 348 352 347 350 352 340 341 338 335 337 340 338 346 343 341 338 338 341 340 339 340 335 335 338 337 335 334 332 330 331 328 329 343 342 342 337 336 336 338 342
349 351 353 347 353 346 354 346 339 337 335 334 336 337 340 345 344 338 342 341 338 336 341 340 340 338 334 334 334 334 334 333 332 328 328 328 343 342 341 339 337 338 339
352 352 350 351 356 353 354 349 343 337 336 338 336 338 339 342 344 342 337 341 340 339 344 339 337 337 333 333 332 332 332 332 332 331 328 326 326 338 342 342 339 337 338
351 351 351 351 352 356 355 348 342 339 338 340 340 339 338 341 342 345 340 340 342 342 340 337 337 333 329 329 329 329 329 331 328 327 328 326 324 322 323 327 327 332 337
352 352 350 353 353 352 353 350 350 349 347 343 345 336 342 341 340 345 345 343 339 340 338 331 329 328 323 320 319 317 320 325 325 326 326 325 323 321 320 323 325 324 327
350 353 352 352 352 352 351 349 349 350 348 350 349 346 344 344 341 341 339 340 339 334 328 328 329 325 320 318 316 315 316 316 320 323 323 324 323 321 321 319 318 317 324
349 348 349 350 350 349 347 345 345 342 346 346 347 344 342 340 338 341 335 331 329 328 327 327 323 319 317 318 313 312 313 315 313 317 320 318 318 320 319 318 317 318 317
346 348 349 348 348 348 347 348 349 345 345 343 342 342 340 339 336 332 331 328 328 322 325 323 323 318 316 316 312 309 304 307 310 311 317 317 316 317 318 317 317 318 317
343 344 344 345 349 349 346 349 347 344 345 342 340 340 338 336 331 331 329 327 325 325 320 322 321 318 313 314 317 308 303 300 305 309 311 317 316 315 316 316 317 319 321
341 342 345 346 348 350 351 347 347 341 336 337 337 336 334 333 329 328 326 326 327 323 324 321 320 320 316 311 312 314 314 311 304 301 309 312 315 315 314 313 314 318 318
341 342 343 343 346 347 350 347 344 339 333 336 333 337 335 334 330 326 326 326 324 324 323 323 321 319 318 314 312 311 309 309 310 306 303 307 312 314 313 311 312 313 315
340 340 339 342 343 345 344 342 338 335 334 330 330 326 330 330 329 328 326 326 325 326 323 323 323 320 319 318 315 313 309 307 305 307 306 307 308 311 314 315 315 317 322
Wind_Speed
15 16 15 14 13 13 13 12 12 12 11 10 11 11 13 14 13 12 12 12 11 9 10 9 9 9 9 8 8 7 6 5 6 6 7 8 6 2 3 7 10 6 7
19 16 15 14 14 13 12 13 12 10 9 11 13 13 14 14 11 11 11 10 10 9 9 8 8 7 7 6 6 6 6 5 6 8 10 11 10 6 3 4 6 6 5
19 16 15 15 15 14 12 13 11 9 11 12 12 13 11 11 11 10 10 9 8 7 6 6 5 5 5 5 5 4 5 6 8 11 14 9 9 10 7 7 3 3 3
18 14 14 15 13 12 11 11 10 10 11 9 10 10 10 10 9 8 8 7 6 5 5 5 5 5 5 5 5 6 7 9 11 14 9 12 7 12 7 7 4 4 4
16 14 15 14 14 13 13 12 12 11 10 10 10 11 10 9 8 7 7 6 5 4 4 4 4 3 4 4 5 6 8 10 13 13 11 12 7 9 7 4 4 6 6
17 18 18 14 13 13 14 13 12 12 11 10 10 9 8 8 7 6 6 5 5 4 4 3 2 2 4 4 5 7 9 12 14 11 11 8 3 12 8 5 2 4 6
18 19 18 17 14 14 14 13 12 12 12 10 9 9 8 8 7 6 6 6 5 4 3 2 1 1 3 4 5 7 9 13 10 11 11 4 10 10 6 3 2 4 5
22 19 17 17 13 13 12 12 12 11 11 10 8 7 7 7 7 6 6 6 5 3 2 0 2 4 5 7 8 9 10 13 11 11 13 7 11 9 5 2 1 5 9
22 19 16 15 13 14 14 13 12 11 10 10 9 7 7 6 7 8 8 6 4 1 2 3 5 7 8 10 11 12 14 15 11 9 10 6 11 9 5 1 3 7 9
20 20 18 17 15 14 12 14 13 11 10 10 9 8 8 9 11 10 9 8 7 6 8 8 10 12 12 11 13 14 16 16 12 12 4 5 11 8 6 2 5 9 10
13 20 18 18 16 15 14 12 12 13 11 9 8 10 8 7 9 11 11 14 13 13 11 12 13 14 14 14 17 18 17 7 13 7 6 12 10 8 6 6 4 10 12
10 10 14 15 13 13 11 13 11 10 8 8 9 9 7 9 6 9 10 14 14 13 13 15 15 15 13 8 7 13 6 10 10 8 6 11 10 7 5 4 5 9 13
11 12 14 11 11 15 11 10 7 7 7 8 9 9 5 3 1 4 2 4 3 11 6 9 9 8 8 5 6 4 6 6 5 5 8 11 10 9 7 4 0 6 9
12 6 17 17 10 7 10 6 7 8 7 5 3 5 1 1 4 4 3 3 2 2 3 4 4 4 5 5 9 10 8 6 5 5 3 9 9 9 9 8 6 6 7
12 8 6 11 7 6 4 2 4 4 5 5 4 5 4 2 2 3 3 3 3 5 5 3 3 6 7 6 6 9 10 9 8 5 3 10 12 10 10 10 11 11 11
12 10 4 9 7 7 3 8 4 5 5 4 4 2 2 2 3 3 4 3 4 5 4 6 4 4 4 6 10 10 11 10 6 8 4 5 10 12 14 15 14 14 15
9 7 10 10 7 7 6 4 5 4 4 4 3 2 4 3 2 4 4 2 3 5 6 5 5 5 3 4 7 8 10 10 10 9 6 5 9 10 16 14 14 14 16
9 10 7 6 9 8 5 5 4 4 5 4 3 4 6 5 3 3 3 3 4 5 4 5 4 4 5 6 5 5 6 4 9 10 4 5 7 7 15 22 22 20 16
7 9 6 7 8 7 6 5 5 5 3 4 3 3 4 1 2 2 4 4 5 4 3 4 5 5 6 8 9 9 8 3 3 7 7 6 4 1 4 12 21 20 26
6 8 8 7 9 8 6 4 3 4 3 3 2 2 3 3 5 1 4 2 3 4 5 5 5 5 6 6 8 8 8 8 5 5 9 4 4 5 2 6 9 10 24
10 9 7 9 8 6 6 6 5 5 4 4 3 3 3 4 5 1 5 6 7 5 5 6 5 6 5 5 7 6 5 6 10 6 5 2 4 6 7 4 4 3 10
10 8 9 9 8 6 6 4 3 4 4 4 4 4 4 3 6 7 6 6 6 5 5 5 5 4 4 5 6 7 6 7 7 10 4 4 6 1 7 6 5 3 11
10 7 8 6 5 4 7 4 3 5 3 3 4 3 2 5 7 7 6 4 5 5 4 5 4 6 5 5 6 4 5 5 10 4 9 3 4 2 5 4 6 3 11
9 7 8 8 5 3 5 4 2 2 4 3 4 4 3 5 4 6 4 4 3 3 4 4 4 4 5 6 5 4 4 4 3 8 4 8 5 4 5 6 6 10 11
12 9 7 6 5 3 2 4 2 3 3 3 6 5 6 5 5 5 4 3 3 3 4 4 4 4 3 3 5 5 4 3 2 1 7 8 7 5 5 10 12 9 12
13 11 7 7 6 4 5 7 7 7 6 6 5 2 3 3 3 6 4 4 3 2 4 4 3 5 4 3 3 4 3 5 4 2 4 6 8 5 6 8 9 10 5
Wind_Direction
125 134 138 134 130 127 125 124 119 117 113 112 112 103 99 93 82 78 77 74 73 67 65 59 52 50 44 39 39 40 35 9 348 333 316 303 294 310 27 16 354 54 91
121 135 133 136 134 131 127 123 110 110 116 102 93 92 81 84 86 84 81 77 74 67 60 53 46 40 36 29 31 24 10 344 327 310 294 282 249 219 143 55 25 55 87
127 128 137 132 133 131 125 119 118 108 104 93 91 88 97 96 92 89 84 83 73 73 66 60 46 42 29 16 13 4 344 322 310 297 291 274 242 194 172 125 85 92 121
123 138 139 140 134 123 120 121 114 109 103 112 107 109 106 103 100 96 95 92 91 81 70 65 54 34 24 1 352 342 330 316 305 298 288 273 234 162 165 136 142 189 185
130 144 133 140 135 136 130 128 125 121 124 126 125 119 118 116 118 113 111 107 99 88 75 61 46 16 352 338 333 330 324 312 304 298 273 270 114 141 132 119 209 212 215
146 137 134 136 138 135 137 137 133 133 132 130 129 128 128 126 123 116 107 103 99 89 87 66 18 343 320 316 319 321 319 312 309 281 265 243 98 132 125 117 40 292 222
153 129 143 146 146 149 147 145 140 141 139 140 144 145 145 143 140 131 115 108 99 94 93 93 39 331 311 302 303 307 307 307 299 290 284 99 86 102 112 113 89 291 246
129 141 143 143 149 147 145 147 145 147 146 150 154 154 156 159 156 147 136 132 130 129 117 343 308 305 299 293 287 283 281 285 299 301 298 99 111 108 97 68 301 274 263
137 126 145 147 155 154 148 151 154 156 157 156 161 167 177 178 183 181 178 170 166 178 257 268 272 271 268 268 273 274 276 283 292 285 298 97 94 97 100 86 280 270 265
141 150 154 152 161 160 157 163 163 160 164 169 174 182 191 201 208 201 194 195 192 208 232 247 253 252 251 258 265 272 275 286 275 266 94 114 111 97 74 15 271 265 264
165 157 156 156 160 179 158 166 165 165 173 181 185 205 206 218 204 203 210 181 199 213 226 241 248 260 264 266 260 252 263 269 276 269 127 134 121 105 82 28 289 266 256
158 131 140 153 166 143 153 153 174 172 179 191 192 192 212 221 185 164 191 189 202 221 225 238 242 255 268 267 283 225 243 259 281 305 111 133 126 125 108 58 351 274 252
139 121 139 151 161 153 143 181 174 171 179 198 191 193 190 36 165 212 188 204 201 224 243 231 232 229 262 309 329 296 244 279 298 320 134 151 155 155 148 145 40 277 277
141 147 151 151 155 176 169 176 183 171 158 84 29 177 44 99 17 308 22 46 251 88 284 331 351 286 266 293 308 290 292 310 320 317 105 166 173 180 183 183 203 232 243
133 139 222 151 141 156 130 59 37 106 100 97 68 55 23 358 336 340 9 338 348 352 338 359 358 317 303 301 292 322 316 313 302 296 294 185 196 200 205 202 213 226 225
131 144 164 139 131 125 208 106 93 89 91 96 81 75 328 329 9 325 318 355 1 304 304 298 257 275 328 329 334 326 319 313 320 302 303 299 206 212 216 213 215 221 231
131 119 122 113 124 130 115 111 112 125 105 101 159 183 267 282 257 317 280 339 296 294 279 274 314 323 328 319 298 300 305 329 320 286 299 325 342 296 231 224 231 231 228
120 120 133 138 151 150 146 134 144 147 183 162 202 214 221 220 242 290 302 303 295 265 304 289 322 342 336 337 310 284 276 284 337 335 354 308 5 10 21 27 21 333 276
137 154 147 144 134 150 149 169 199 165 176 208 194 217 182 174 207 216 254 260 237 263 323 19 0 357 356 337 324 325 331 310 317 308 287 279 331 327 344 337 0 347 343
97 90 105 120 136 147 145 150 178 147 199 210 200 158 136 218 240 216 264 207 16 10 14 356 21 6 339 319 323 327 321 326 344 316 299 337 342 289 288 313 328 339 317
105 106 124 123 139 138 175 171 157 178 169 164 110 160 154 215 207 185 21 26 18 9 340 29 20 344 324 323 333 308 317 341 337 8 359 32 291 313 272 218 201 254 297
122 130 138 143 169 180 152 134 163 164 144 139 159 146 215 52 80 74 36 11 26 351 352 23 355 346 332 327 322 314 327 333 343 320 286 281 283 290 266 240 217 225 277
132 145 135 128 105 76 117 131 120 113 113 140 123 171 121 88 53 71 43 36 10 345 351 2 4 355 320 324 338 315 343 336 322 350 312 300 293 237 278 277 224 198 269
141 141 128 113 102 75 105 110 180 188 146 182 132 136 136 89 107 101 69 30 19 346 25 350 338 346 333 330 324 343 8 301 348 333 333 296 273 225 247 251 272 274 258
147 127 118 112 119 160 124 77 222 84 170 169 133 133 125 163 161 127 90 46 14 311 324 353 3 329 317 337 327 341 335 307 314 239 301 327 327 293 236 247 242 252 260
138 139 140 152 150 135 105 88 64 55 60 57 34 3 45 177 140 85 61 69 312 317 345 308 316 298 295 306 331 313 318 308 319 282 279 311 309 285 259 244 241 241 246